Location: Bukit Nyuki
(2.5885°N, 113.7476°E)
Time: 12:38:43
(UTC+00:00)

Cosmos 1741 Rocket - Visible Passes

Search period start: 21 September 2021 00:00
Search period end: 01 October 2021 00:00
Orbit: 761 x 783 km, 74.0° (Epoch: 20 September)

Date Brightness Start Highest point End Pass type
(mag) Time Alt. Az. Time Alt. Az. Time Alt. Az.
21 Sep 6.5 19:40:15 13° NE 19:42:53 18° ENE 19:46:20 10° ESE visible
21 Sep 4.9 21:20:55 12° NW 21:24:44 26° WSW 21:29:00 10° SSW visible
22 Sep 4.0 20:48:57 51° WSW 20:48:57 51° WSW 20:53:55 10° S visible
23 Sep 5.5 20:15:52 27° SSE 20:15:52 27° SSE 20:18:13 10° SSE visible
